Location: Pedholt
(56.0260°N, 10.2097°E)
Time: 07:32:43
(UTC+00:00)

SR - Pass Details

Date: 03 August 2021
Orbit: 581 x 874 km, 66.7° (Epoch: 24 September)

Event Time Altitude Azimuth Distance (km) Brightness Sun altitude
Rises 05:31:09 0° 212° (SSW) 3,421 ? 15.2°
Reaches altitude 10° 05:33:41 10° 210° (SSW) 2,463 ? 15.5°
Maximum altitude 05:39:21 69° 128° (SE) 868 ? 16.3°
Drops below altitude 10° 05:44:39 10° 47° (NE) 2,308 ? 17.0°
Sets 05:46:57 0° 45° (NE) 3,191 ? 17.4°
